User: anonymous   Login
Location: Unspecified
(0.0000°N, 0.0000°E)
Time: 15:21:16
(UTC+00:00)
Language:

BEESAT 3 - Orbit

View from above orbital plane
View from above orbital plane
View from above satellite
View from above satellite

Ground track
Ground track

The orbit data is extracted from the following two-line orbital elements,

1 39134U 13015E   17229.16178580  .00001284  00000-0  71734-4 0  9998
2 39134  64.8638  29.6192 0038792 253.8716 105.8139 15.17950052238732
Epoch (UTC): 17 August 2017 03:52:58
Eccentricity: 0.0038792
inclination: 64.8638°
perigee height: 485 km
apogee height: 539 km
right ascension of ascending node: 29.6192°
argument of perigee: 253.8716°
revolutions per day: 15.17950052
mean anomaly at epoch: 105.8139°
orbit number at epoch: 23873

The dashed part of the orbit path shows where the satellite is in the earth's shadow,  

DLR